STARLINK-32294, 61675

Orbit data source: Space-Track

STARLINK-32294, 61675 is a payload satellite owned by SpaceX/Seattle (US) in LEO that was launched on Sat, 26 Oct 2024 UTC via an FALCON 9 launch vehicle from the Air Force Eastern Test Range (AFETR). Payloads include a variety of satellites, spacecraft, and rockets equipped with specific instruments for various scientific and technological missions. These include communications satellites like Starlink; space stations such as the ISS; scientific satellites like the Hubble; Earth observation satellites from companies like Planet Labs, Umbra, and HawkEye 360; GPS; miniature CubeSats for education and research; and military/defense satellites.

Loading next visibility...
STARLINK-32294 details
Identifier
61675, 2024-193Q
Orbit
LEO
Last TLE update13 hours ago
Origin
Flag of USSpaceX/Seattle (US)
ManufacturerSpaceX/Seattle
MissionOperational spacecraft
Bus & MotorSTARLINK V2M, Unknown motor
Mass730 kg wet, ~700 kg dry
Launch date (UTC)
2024-10-26 (2 months ago)
Launch vehicle
FALCON 9
Launch site
Air Force Eastern Test Range (AFETR)
Object type
Payload
Rocket body
Debris
Shape & HBRUnknown
Radar Cross SectionLarge (>1 m²)

Expand to show TLE details & history

TLE from 13 hours ago
0 STARLINK-32294
1 61675U 24193Q   24361.33273074  .00000353  00000-0  18802-4 0  9993
2 61675  53.1596 329.1620 0001185  97.5560 262.5580 15.39607448  9381
Epoch: 2024-12-26T07:59Z
Definitive object data (Epoch: 2024-12-26T07:59:07.935Z)
Latitude-0°
Longitude114.0653°
Altitude448.277 km
Speed7.644 km/s
True Right ascension21h 56m 38s
True Declination0° 00' 00"
Sunlit
Object was in daylight at TLE epoch
Visualization TLE readout
Latitude11.74525°
Longitude-77.43393°
Altitude447.075 km
Speed7.646 km/s
Apparent Right ascension08h 54m 38s
Apparent Declination-13° 07' 04"
Sunlit
Object is in full shadow
Visualization observer readout
Local Sidereal Time20:32:46
Azimuth348.303° N
Elevation-62.773°
Doppler factor1
Orbital elements
Apogee altitude448.336 km
Perigee altitude446.718 km
Semi-major axis6,825.664 km
Eccentricity0.0001185
Inclination53.1596°
RAAN329.162°
Arg. of periapsis97.556°
True anomaly262.54454°
Mean anomaly262.558°
Eccentric anomaly262.55127°
Mean motion3.8488 °/min
BSTAR0.000018802
Orbital period93.54 mins
Loading maneuver chart data...
Loading historical data...
Loading historical data...
Loading historical data...
Loading historical data...
Loading historical data...
Loading historical data...
Loading historical data...

STARLINK-32294 Visibility forecast

Observer location: undefined°, undefined

Span
Click to sort rows by Start time (UTC) header in descending order
Start Az.
Max El. time (UTC)
Max El. Az.
Max El.
End time (UTC)
End Az.
4 mins2024-12-27 01:20:49.831Z264.736° W2024-12-27 01:21:49.831Z296.529° NW35.343°2024-12-27 01:24:49.831Z36.135° NE
4 mins2024-12-27 06:15:49.831Z353.109° N2024-12-27 06:16:49.831Z15.08° NNE19.195°2024-12-27 06:19:49.831Z75.305° E
5 mins2024-12-27 07:52:49.831Z297.396° NW2024-12-27 07:54:49.831Z219.047° SW41.242°2024-12-27 07:57:49.831Z143.737° SSE
|